Regional Weather Roundup
Issued by NWS

Home | Current Version | Previous Version | Text Only | Print | Product List | Glossary Off
Versions: 1 2 3 4 5 6 7 8 9 10 11 12 13 14 15 16 17 18 19 20 21 22 23 24 25 26 27 28 29 30 31 32 33 34 35 36 37 38 39 40 41 42 43 44 45 46 47 48 49 50

492
ASUS45 KBOU 150210
RWRCO

WEATHER ROUNDUP FOR COLORADO
NATIONAL WEATHER SERVICE DENVER/BOULDER CO
700 PM MST THU DEC 14 2017

NOTE: "FAIR" INDICATES FEW OR NO CLOUDS BELOW 12000 FEET WITH NO
SIGNIFICANT WEATHER AND/OR OBSTRUCTIONS TO VISIBILITY.

COZ001>005-013-030-031-150300-
...NORTHWEST COLORADO...

CITY           SKY/WX    TMP DP  RH WIND       PRES   REMARKS
CRAIG          FAIR      13   9  84 CALM      30.35R
HAYDEN         FAIR      20  13  74 CALM      30.35R
MEEKER         FAIR      20  13  74 CALM      30.34R
RABBIT EARS PA FAIR      10   9  92 NW9       30.24R WCI  -2
STEAMBOAT SPGS FAIR      22  14  71 E5        30.32R WCI  16
WALDEN         FAIR       7   1  78 S7        30.30S WCI  -5
$$

COZ006>008-011-150300-
...WEST CENTRAL VALLEYS...

CITY           SKY/WX    TMP DP  RH WIND       PRES   REMARKS
GRAND JUNCTION FAIR      37  16  42 NE13      30.32R
MONTROSE       FAIR      27  17  66 S9        30.34R WCI  18
EAGLE          FAIR      23  12  62 E8        30.37R WCI  14
RIFLE          FAIR      29  11  47 CALM      30.35R
DELTA          FAIR      36  12  38 E3        30.32R
NUCLA          FAIR      36   5  27 E7        30.34R
$$

COZ017>023-064>068-150300-
...SOUTHWEST COLORADO...

CITY           SKY/WX    TMP DP  RH WIND       PRES   REMARKS
DURANGO        FAIR      24  17  74 NE8       30.19R WCI  15
CORTEZ         FAIR      37  10  32 NW12      30.25R
PAGOSA SPRINGS FAIR      25  20  83 CALM      30.22R
TELLURIDE      FAIR      25  12  58 SW8       30.30R WCI  16
WOLF CREEK PAS FAIR      14   1  57 NW8       30.26R WCI   3
$$

COZ009-010-012-014-032>034-037-058>063-150300-
...CENTRAL COLORADO...

CITY           SKY/WX    TMP DP  RH WIND       PRES   REMARKS
ASPEN          FAIR      19  10  68 CALM      30.30R
BUENA VISTA    FAIR      25   6  44 NW20G26   30.23R WCI  11
COPPER MTN     NOT AVBL
BERTHOUD PASS  CLOUDY     3  -8  60 NW24G33   30.18R WCI -20
COTTONWOOD PAS FAIR      27   5  39 W7        30.22R WCI  19
GUNNISON       FAIR      26  17  68 W8        30.28R WCI  18
KREMMLING      FAIR      21  12  68 CALM      30.33R
LEADVILLE      FAIR      10   2  69 NE3       30.26R
MONARCH PASS   FAIR      10   1  67 W17G23    30.30S WCI  -7
SALIDA         FAIR      31   4  31 NW12G17   30.32R WCI  22
SUNLIGHT       FAIR      10   5  79 N6        30.33S WCI   1
WILKERSON PASS FAIR      10   1  67 N12G23    30.19S WCI  -4
$$

COZ069>075-150300-
...SAN LUIS VALLEY/SANGRE DE CRISTO MOUNTAINS...

CITY           SKY/WX    TMP DP  RH WIND       PRES   REMARKS
ALAMOSA        FAIR      18  15  88 W7        30.20R WCI   9
DEL NORTE      FAIR      22  19  87 W6        30.22R WCI  15
LA VETA PASS   FAIR      18  14  86 W10         N/A  WCI   6
SAGUACHE       FAIR      28   7  40 N10       30.22R WCI  19
$$

COZ035-036-038>040-150300-
...NORTHERN COLORADO FRONT RANGE...

CITY           SKY/WX    TMP DP  RH WIND       PRES   REMARKS
DENVER INTL AP FAIR      20  16  84 S9        30.24R WCI   9
DMNS CITY PARK NOT AVBL
AURORA         CLEAR     23  19  84 S3        30.24S
FRONT RANGE AP PTCLDY    25  19  80 S6        30.26R WCI  18
ERIE MUNI ARPT FAIR      30  21  70 S6        30.30R WCI  24
BOULDER MUN AP FAIR      32  23  69 S5        30.24R WCI  27
CENTENNIAL     FAIR      25  19  78 S3        30.24R
BROOMFIELD     PTCLDY    30  21  69 S5        30.24R WCI  25
FORT COLLINS   FAIR      31  21  66 SW7       30.24R WCI  24
LONGMONT       FAIR      30  22  72 SW6       30.27R WCI  24
$$

COZ041-046-047-076>085-087-088-150300-
...PIKES PEAK/PALMER DIVIDE AND SOUTHERN FOOTHILLS...

CITY           SKY/WX    TMP DP  RH WIND       PRES   REMARKS
COLO. SPRINGS  FAIR      27  19  72 SW5       30.25R WCI  22
A. F. ACADEMY  FAIR      21  17  84 CALM      30.22R
SCHRIEVER AFB  FAIR      25  18  74 NW6       30.25R WCI  18
CHEYENNE MTN   FAIR      25  22  88 S3        30.18R
ELLICOTT         N/A    N/A N/A N/A NW3       30.23R
FALCON         FAIR      20  18  88 NW6       30.23R WCI  13
FORT CARSON    FAIR      30  24  80 CALM      30.24R
LIMON          FAIR      19  17  92 W12       30.23R WCI   7
MONUMENT HILL  FOG       14  14 100 W6        30.23R VSB 1/2 WCI   5
CANON CITY     MOCLDY    30  30 100 S5        30.26R WCI  25
WALSENBURG     CLOUDY    28  27  93 CALM      30.26S
TRINIDAD       FLURRIES  30  27  88 NE5       30.28R WCI  25
$$

COZ042>045-048>051-090-091-150300-
...NORTHEAST COLORADO...

CITY           SKY/WX    TMP DP  RH WIND       PRES   REMARKS
GREELEY ARPT   FAIR      25  14  63 NE8       30.24S WCI  16
AKRON          FAIR      21  16  81 NW6       30.23R WCI  13
BURLINGTON     FAIR      27  17  66 N8        30.23R WCI  19
WRAY           CLOUDY    32  23  69 W5        30.24S WCI  27
YUMA           FAIR      28  18  64 NW8       30.24R WCI  20
STERLING       FAIR      27  19  74 N5        30.24R WCI  21
HOLYOKE        FAIR      32  23  69 NW9       30.23S WCI  24
FORT MORGAN    FAIR      25  15  67 N8        30.25S WCI  16
$$

COZ086-089-092>099-150300-
...SOUTHEAST COLORADO...

CITY           SKY/WX    TMP DP  RH WIND       PRES   REMARKS
PUEBLO         CLOUDY    31  24  75 SE3       30.28R
LA JUNTA       FAIR      27  21  78 W6        30.28R WCI  20
LAMAR          FAIR      26  20  77 W8        30.26R WCI  18
SPRINGFIELD      N/A     28  25  88 NW10      30.25R WCI  19
$$




USA.gov is the U.S. government's official web portal to all federal, state and local government web resources and services.